Flag for Canada Weather past 2 weeks in Granby, Quebec, Canada

Now
76 °F

Mild.


Feels Like: 77 °F
Forecast: 71 / 79 °F
Wind: 3 mph from South

Location: Frelighsburg

Current Time: Jul 30, 2015 at 12:12:25 AM

Latest Report: Jul 29, 2015 at 11:00 PM


Visibility: N/A

Pressure: 29.86 "Hg

Humidity: 80%

Dew point: 69 °F

Location of GranbyLocation

Historic Weather in Granby — Graph

°F

Granby temperature yesterday

Maximum temperature yesterday: 86 °F (at 5:00 PM)
Minimum temperature yesterday: 66 °F (at 5:00 AM)
Average temperature yesterday: 76 °F

Past Weeks' High & Low Weather Summary

 TemperatureHumidityPressure
High86 °F (Jul 29, 5:00 PM)100% (Jul 18, 7:00 AM)30.13 "Hg (Jul 18, 7:00 AM)
Low47 °F (Jul 16, 5:00 AM)45% (Jul 17, 11:00 AM)29.53 "Hg (Jul 21, 5:00 PM)
Average67 °F81%29.86 "Hg
* Reported Jul 14 10:00 PM — Jul 29 10:00 PM, Granby, Weather by CustomWeather, © 2015

Note: Actual official high and low records may vary slightly from our data, if they occured in-between our weather recording intervals... More about our weather records

Advertising

Granby weather history for previous 24 hours

 ConditionsComfort  
Time TempWeatherWind HumidityBarometerVisibility
10:00 PM
Wed, Jul 29
75 °FMild.3 mph84%29.87 "HgN/A
9:00 PM75 °FMild.2 mph83%29.87 "HgN/A
8:00 PM77 °FMild.2 mph83%29.87 "HgN/A
7:00 PM81 °FWarm.1 mph72%29.86 "HgN/A
6:00 PM85 °FWarm.2 mph63%29.87 "HgN/A
5:00 PM86 °FWarm.2 mph59%29.88 "HgN/A
4:00 PM84 °FWarm.1 mph64%29.89 "HgN/A
3:00 PM85 °FWarm.2 mph56%29.89 "HgN/A
2:00 PM84 °FWarm.5 mph63%29.90 "HgN/A
1:00 PM84 °FWarm.3 mph62%29.92 "HgN/A
12:00 PM82 °FWarm.6 mph62%29.93 "HgN/A
11:00 AM80 °FWarm.3 mph67%29.94 "HgN/A
10:00 AM79 °FWarm.3 mph68%29.95 "HgN/A
9:00 AM76 °FMild.3 mph74%29.95 "HgN/A
8:00 AM71 °FMild.3 mph86%29.95 "HgN/A
7:00 AM70 °FMild.5 mph86%29.95 "HgN/A
6:00 AM67 °FMild.5 mph94%29.96 "HgN/A
5:00 AM66 °FMild.3 mph95%29.95 "HgN/A
4:00 AM68 °FMild.3 mph94%29.94 "HgN/A
3:00 AM68 °FMild.3 mph95%29.95 "HgN/A
2:00 AM68 °FMild.3 mph95%29.95 "HgN/A
1:00 AM68 °FMild.3 mph96%29.96 "HgN/A
12:00 AM69 °FMild.3 mph97%29.95 "HgN/A
Weather by CustomWeather, © 2015

See weather overviewHow to use our weather pages